Location: Sungai Bunut
(2.6333°N, 113.7333°E)
Time: 19:48:55
(UTC+00:00)

BlueWalker 3 - Visible Passes

Search period start: 09 December 2022 00:00
Search period end: 19 December 2022 00:00
Orbit: 501 x 518 km, 53.2° (Epoch: 09 December)

Date Brightness Start Highest point End Pass type
(mag) Time Alt. Az. Time Alt. Az. Time Alt. Az.
14 Dec 3.0 11:07:02 10° N 11:10:07 23° NE 11:11:19 20° E visible
14 Dec 5.2 12:46:19 10° W 12:46:28 11° W 12:46:28 11° W visible
15 Dec 2.9 10:48:27 10° N 10:51:41 25° NE 10:54:54 10° ESE visible
15 Dec 5.1 12:28:10 10° W 12:30:07 13° SW 12:32:04 10° SSW visible
16 Dec 5.3 12:10:04 10° W 12:11:40 12° SW 12:13:15 10° SSW visible
17 Dec 5.5 11:52:08 10° WSW 11:53:12 11° SW 11:54:17 10° SW visible
18 Dec 4.7 21:45:03 10° S 21:48:17 24° ESE 21:51:30 10° ENE visible
